Home > Weather > Starnberg > Past weeks

Flag for Germany Past Weather in Starnberg, Bavaria, Germany — Yesterday and Last 2 Weeks

Now
73 °F

Sunny.


Feels Like: 77 °F
Forecast: 54 / 75 °F
Wind: 7 mph from Northwest

Location: Oberpfaffenhofen

Current Time: May 27, 2016 at 10:17:33 PM

Latest Report: May 27, 2016 at 6:50 PM


Visibility: 10 mi

Pressure: 29.95 "Hg (27.98 "Hg at 590m altitude)

Humidity: 53%

Dew Point: 55 °F

Location of StarnbergLocation

Past Weather in Starnberg — Graph

°F

Starnberg Temperature Yesterday

High & Low Weather Summary for the Past Weeks

 TemperatureHumidityPressure
High81 °F (May 22, 3:20 PM)100% (May 13, 8:50 AM)30.18 "Hg (May 13, 8:50 AM)
Low39 °F (May 16, 6:20 PM)33% (May 21, 4:50 PM)29.45 "Hg (May 12, 6:50 PM)
Average55 °F77%29.91 "Hg
* Reported May 12 6:20 PM — May 27 6:50 PM, Starnberg, Weather by CustomWeather, © 2016

Note: Actual official high and low records may vary slightly from our data, if they occured in-between our weather recording intervals... More about our weather records

Advertising

Starnberg Weather History for the Previous 24 Hours

Scroll right to see more
 ConditionsComfort  
Time TempWeatherWind HumidityBarometerVisibility
6:50 PM
Fri, May 27
73 °FSunny.7 mph53%29.95 "Hg10 mi
6:20 PM73 °FSunny.6 mph50%29.95 "Hg10 mi
5:50 PM73 °FSunny.7 mph50%29.95 "Hg10 mi
5:20 PM75 °FSunny.8 mph47%29.95 "Hg10 mi
4:50 PM75 °FSunny.8 mph50%29.95 "Hg10 mi
4:20 PM75 °FSunny.8 mph50%29.95 "Hg10 mi
3:50 PM75 °FSunny.7 mph50%29.95 "Hg10 mi
3:20 PM75 °FSunny.8 mph47%29.95 "Hg10 mi
2:50 PM75 °FSunny.2 mph50%29.98 "Hg10 mi
2:20 PM73 °FSunny.5 mph53%29.98 "Hg10 mi
1:20 PM73 °FSunny.8 mph53%29.98 "Hg10 mi
12:50 PM72 °FSunny.8 mph61%29.98 "Hg10 mi
12:20 PM72 °FSunny.9 mph57%29.98 "Hg10 mi
11:50 AM72 °FPassing clouds.9 mph61%29.98 "HgN/A
11:20 AM70 °FPassing clouds.9 mph60%29.98 "HgN/A
10:50 AM70 °FPassing clouds.12 mph60%29.98 "HgN/A
10:20 AM70 °FSunny.10 mph60%29.98 "Hg10 mi
9:50 AM64 °FSunny.5 mph73%29.98 "Hg10 mi
9:20 AM63 °FSunny.2 mph77%29.98 "Hg10 mi
8:50 AM61 °FSunny.2 mph83%29.98 "Hg10 mi
8:20 AM61 °FSunny.3 mph77%29.95 "Hg10 mi
7:50 AM61 °FSunny.No wind83%29.95 "Hg10 mi
7:20 AM57 °FSunny.1 mph94%29.95 "Hg10 mi
6:50 AM55 °FSunny.1 mph94%29.95 "Hg10 mi
Weather by CustomWeather, © 2016

See weather overviewHow to use our weather pages